QPF
0.00 0.00 0.00 0.01 0.01 0.02 0.01 0.01 0.01 0.01 0.01 0.01 0.01 0.01 0.01 0.00 0.01 0.01 0.00 0.00 0.00 0.00 0.00 0.00 0.00 0.00 0.00 0.00 0.00 0.00 0.00 0.00 0.00 0.01 0.02 0.02 0.01 0.01 0.01 0.03 0.03 0.02 0.02 0.02 0.01 0.02 0.02 0.03 0.03
0.00 0.00 0.01 0.01 0.01 0.01 0.01 0.01 0.01 0.02 0.02 0.01 0.01 0.01 0.00 0.00 0.00 0.00 0.00 0.00 0.00 0.00 0.00 0.00 0.00 0.00 0.00 0.00 0.00 0.00 0.00 0.00 0.00 0.00 0.01 0.01 0.01 0.01 0.01 0.02 0.03 0.02 0.02 0.02 0.01 0.01 0.01 0.02 0.02
0.00 0.00 0.00 0.00 0.00 0.01 0.01 0.01 0.01 0.02 0.01 0.01 0.01 0.00 0.00 0.00 0.00 0.00 0.00 0.00 0.00 0.00 0.00 0.00 0.00 0.00 0.00 0.00 0.00 0.00 0.00 0.00 0.00 0.00 0.00 0.01 0.01 0.01 0.01 0.02 0.02 0.02 0.01 0.01 0.01 0.01 0.01 0.01 0.02
0.00 0.00 0.00 0.00 0.00 0.00 0.00 0.01 0.02 0.02 0.01 0.01 0.01 0.01 0.00 0.00 0.00 0.00 0.00 0.00 0.00 0.00 0.00 0.00 0.00 0.00 0.00 0.00 0.00 0.00 0.00 0.00 0.00 0.00 0.01 0.01 0.01 0.01 0.02 0.02 0.02 0.02 0.01 0.01 0.01 0.01 0.01 0.02 0.03
0.00 0.00 0.01 0.00 0.00 0.00 0.00 0.01 0.01 0.01 0.01 0.01 0.01 0.01 0.00 0.00 0.00 0.00 0.00 0.00 0.00 0.00 0.00 0.00 0.00 0.00 0.00 0.00 0.00 0.00 0.00 0.00 0.00 0.00 0.01 0.01 0.01 0.02 0.02 0.02 0.01 0.01 0.01 0.01 0.01 0.02 0.03 0.04 0.03
0.00 0.00 0.00 0.00 0.00 0.00 0.00 0.00 0.01 0.01 0.02 0.01 0.00 0.00 0.00 0.00 0.00 0.00 0.00 0.00 0.00 0.00 0.00 0.00 0.00 0.00 0.00 0.00 0.00 0.00 0.00 0.00 0.00 0.01 0.01 0.01 0.01 0.02 0.02 0.02 0.02 0.01 0.01 0.01 0.02 0.02 0.03 0.03 0.03
0.00 0.00 0.00 0.00 0.00 0.00 0.00 0.00 0.01 0.01 0.01 0.01 0.00 0.00 0.00 0.00 0.01 0.01 0.01 0.00 0.00 0.00 0.00 0.00 0.00 0.01 0.01 0.02 0.01 0.00 0.00 0.00 0.01 0.01 0.01 0.01 0.01 0.01 0.01 0.01 0.02 0.01 0.01 0.01 0.02 0.02 0.03 0.03 0.03
0.00 0.00 0.00 0.00 0.00 0.00 0.01 0.01 0.01 0.01 0.00 0.00 0.00 0.00 0.00 0.00 0.00 0.01 0.01 0.01 0.00 0.00 0.00 0.00 0.00 0.00 0.01 0.01 0.01 0.01 0.01 0.01 0.01 0.01 0.01 0.01 0.01 0.01 0.01 0.01 0.01 0.01 0.02 0.02 0.02 0.02 0.03 0.03 0.03
0.00 0.00 0.00 0.00 0.00 0.00 0.01 0.01 0.01 0.01 0.01 0.00 0.00 0.00 0.00 0.00 0.00 0.01 0.02 0.03 0.01 0.01 0.01 0.01 0.01 0.00 0.00 0.00 0.01 0.01 0.01 0.01 0.01 0.01 0.02 0.01 0.01 0.00 0.00 0.01 0.01 0.01 0.02 0.02 0.02 0.03 0.03 0.04 0.05
0.00 0.00 0.00 0.00 0.00 0.00 0.00 0.01 0.01 0.01 0.01 0.02 0.02 0.00 0.00 0.00 0.01 0.00 0.00 0.01 0.01 0.01 0.01 0.00 0.00 0.00 0.00 0.00 0.00 0.00 0.01 0.01 0.00 0.00 0.01 0.00 0.00 0.00 0.00 0.01 0.01 0.01 0.02 0.02 0.03 0.03 0.03 0.02 0.02
0.00 0.00 0.00 0.00 0.00 0.00 0.00 0.01 0.01 0.01 0.01 0.01 0.00 0.00 0.00 0.01 0.02 0.01 0.01 0.00 0.00 0.00 0.01 0.01 0.00 0.00 0.00 0.00 0.00 0.00 0.00 0.00 0.00 0.00 0.00 0.00 0.00 0.00 0.00 0.01 0.01 0.01 0.01 0.01 0.02 0.02 0.01 0.01 0.01
0.00 0.00 0.00 0.00 0.00 0.00 0.00 0.00 0.00 0.01 0.01 0.00 0.00 0.00 0.00 0.00 0.01 0.01 0.01 0.00 0.01 0.01 0.01 0.01 0.00 0.00 0.00 0.00 0.00 0.00 0.00 0.00 0.00 0.00 0.00 0.00 0.00 0.01 0.00 0.00 0.00 0.00 0.00 0.00 0.01 0.02 0.02 0.02 0.01
0.00 0.00 0.00 0.00 0.00 0.00 0.00 0.00 0.01 0.02 0.01 0.00 0.00 0.00 0.00 0.00 0.01 0.01 0.01 0.01 0.02 0.02 0.01 0.01 0.01 0.00 0.01 0.01 0.01 0.00 0.00 0.00 0.00 0.00 0.00 0.00 0.00 0.01 0.00 0.00 0.00 0.00 0.00 0.01 0.01 0.02 0.03 0.03 0.02
0.00 0.00 0.00 0.00 0.00 0.00 0.00 0.00 0.00 0.01 0.01 0.00 0.00 0.00 0.01 0.01 0.01 0.01 0.02 0.03 0.03 0.02 0.02 0.02 0.02 0.01 0.01 0.01 0.01 0.00 0.00 0.00 0.00 0.00 0.00 0.00 0.00 0.01 0.01 0.00 0.00 0.00 0.00 0.01 0.02 0.03 0.03 0.03 0.02
0.00 0.00 0.00 0.00 0.00 0.00 0.00 0.00 0.00 0.01 0.01 0.00 0.01 0.01 0.01 0.02 0.02 0.02 0.02 0.03 0.04 0.05 0.05 0.04 0.03 0.03 0.03 0.03 0.02 0.01 0.01 0.01 0.01 0.00 0.00 0.00 0.00 0.01 0.01 0.01 0.00 0.00 0.01 0.02 0.03 0.02 0.02 0.03 0.03
0.00 0.00 0.00 0.00 0.00 0.00 0.00 0.00 0.01 0.01 0.01 0.02 0.02 0.03 0.04 0.03 0.03 0.04 0.04 0.04 0.07 0.08 0.09 0.07 0.06 0.05 0.06 0.05 0.06 0.04 0.03 0.02 0.01 0.01 0.01 0.01 0.01 0.01 0.02 0.02 0.01 0.01 0.01 0.02 0.03 0.02 0.02 0.03 0.03
0.00 0.00 0.00 0.00 0.00 0.00 0.00 0.00 0.00 0.01 0.01 0.02 0.03 0.03 0.04 0.05 0.05 0.05 0.06 0.07 0.10 0.10 0.08 0.09 0.10 0.09 0.08 0.09 0.10 0.08 0.06 0.04 0.03 0.02 0.02 0.02 0.02 0.02 0.03 0.02 0.01 0.01 0.02 0.02 0.02 0.01 0.01 0.02 0.02
0.00 0.00 0.00 0.00 0.00 0.00 0.00 0.00 0.00 0.00 0.01 0.02 0.03 0.03 0.03 0.05 0.06 0.06 0.06 0.08 0.08 0.10 0.11 0.12 0.14 0.14 0.13 0.13 0.10 0.10 0.11 0.08 0.06 0.06 0.04 0.03 0.03 0.02 0.03 0.02 0.01 0.02 0.03 0.03 0.02 0.03 0.02 0.02 0.02
0.00 0.00 0.00 0.00 0.00 0.00 0.00 0.00 0.00 0.01 0.01 0.02 0.03 0.04 0.04 0.04 0.05 0.07 0.08 0.11 0.14 0.13 0.12 0.14 0.16 0.15 0.17 0.16 0.13 0.10 0.09 0.08 0.07 0.07 0.06 0.05 0.04 0.04 0.04 0.03 0.02 0.02 0.02 0.03 0.03 0.03 0.02 0.02 0.03
0.00 0.00 0.00 0.00 0.00 0.00 0.00 0.00 0.00 0.00 0.01 0.01 0.02 0.02 0.02 0.02 0.03 0.05 0.07 0.09 0.14 0.21 0.17 0.14 0.14 0.14 0.17 0.21 0.22 0.17 0.13 0.11 0.10 0.10 0.08 0.07 0.05 0.05 0.05 0.03 0.02 0.02 0.02 0.03 0.02 0.02 0.02 0.03 0.02
0.00 0.00 0.00 0.00 0.00 0.01 0.01 0.00 0.00 0.00 0.01 0.01 0.01 0.01 0.02 0.02 0.03 0.03 0.05 0.06 0.09 0.16 0.18 0.13 0.12 0.15 0.19 0.27 0.29 0.23 0.19 0.15 0.11 0.08 0.08 0.06 0.06 0.06 0.05 0.04 0.04 0.03 0.02 0.03 0.02 0.02 0.03 0.02 0.02
0.00 0.00 0.00 0.00 0.00 0.00 0.00 0.00 0.00 0.01 0.01 0.01 0.01 0.01 0.01 0.02 0.02 0.03 0.03 0.06 0.10 0.13 0.15 0.14 0.14 0.18 0.25 0.31 0.28 0.21 0.16 0.11 0.07 0.06 0.07 0.08 0.06 0.04 0.03 0.03 0.04 0.04 0.04 0.04 0.04 0.03 0.02 0.02 0.01
0.00 0.00 0.00 0.00 0.00 0.00 0.00 0.00 0.00 0.01 0.01 0.01 0.01 0.01 0.02 0.02 0.04 0.04 0.05 0.08 0.10 0.12 0.13 0.15 0.18 0.22 0.26 0.29 0.27 0.23 0.20 0.16 0.15 0.12 0.10 0.07 0.06 0.05 0.03 0.04 0.05 0.04 0.04 0.04 0.03 0.02 0.02 0.01 0.01
0.00 0.00 0.00 0.00 0.00 0.00 0.00 0.00 0.00 0.00 0.01 0.01 0.01 0.01 0.02 0.02 0.04 0.07 0.09 0.14 0.15 0.14 0.14 0.18 0.21 0.22 0.24 0.25 0.24 0.23 0.24 0.24 0.19 0.15 0.10 0.08 0.07 0.06 0.04 0.03 0.03 0.03 0.03 0.02 0.02 0.02 0.02 0.02 0.02
0.00 0.00 0.00 0.00 0.00 0.00 0.00 0.00 0.00 0.00 0.00 0.00 0.00 0.01 0.02 0.02 0.05 0.09 0.12 0.12 0.16 0.18 0.18 0.21 0.22 0.23 0.27 0.28 0.24 0.22 0.21 0.22 0.18 0.15 0.11 0.08 0.07 0.05 0.04 0.03 0.02 0.02 0.02 0.02 0.02 0.03 0.03 0.03 0.02
0.00 0.00 0.00 0.00 0.00 0.00 0.00 0.00 0.00 0.00 0.00 0.00 0.00 0.01 0.02 0.03 0.04 0.05 0.08 0.11 0.14 0.18 0.20 0.27 0.30 0.30 0.32 0.28 0.26 0.25 0.22 0.22 0.21 0.19 0.14 0.09 0.06 0.05 0.05 0.05 0.03 0.02 0.02 0.02 0.02 0.01 0.01 0.02 0.02
0.00 0.00 0.00 0.00 0.00 0.00 0.00 0.00 0.00 0.00 0.01 0.01 0.01 0.02 0.02 0.03 0.03 0.03 0.05 0.06 0.09 0.14 0.18 0.20 0.25 0.28 0.29 0.25 0.24 0.26 0.28 0.24 0.20 0.20 0.16 0.12 0.10 0.08 0.08 0.07 0.05 0.03 0.02 0.02 0.02 0.02 0.02 0.02 0.02
0.00 0.00 0.00 0.00 0.00 0.00 0.00 0.00 0.01 0.01 0.01 0.01 0.01 0.01 0.02 0.02 0.02 0.03 0.05 0.05 0.06 0.07 0.11 0.12 0.15 0.21 0.24 0.22 0.19 0.19 0.24 0.23 0.21 0.23 0.20 0.12 0.10 0.10 0.11 0.09 0.07 0.04 0.03 0.02 0.03 0.03 0.03 0.03 0.02
0.00 0.00 0.00 0.00 0.00 0.00 0.00 0.00 0.01 0.01 0.01 0.01 0.01 0.02 0.02 0.03 0.03 0.03 0.05 0.06 0.07 0.07 0.07 0.07 0.09 0.14 0.17 0.18 0.18 0.17 0.16 0.16 0.19 0.21 0.18 0.15 0.12 0.09 0.08 0.08 0.08 0.06 0.03 0.03 0.03 0.03 0.03 0.03 0.03
0.00 0.00 0.00 0.00 0.00 0.00 0.00 0.00 0.01 0.00 0.00 0.01 0.01 0.01 0.02 0.03 0.03 0.03 0.05 0.07 0.05 0.04 0.05 0.05 0.06 0.10 0.12 0.13 0.16 0.14 0.14 0.14 0.15 0.16 0.15 0.14 0.13 0.09 0.07 0.08 0.08 0.07 0.04 0.04 0.03 0.04 0.04 0.03 0.03
MSLP
1007.37 1008.42 1009.60 1010.69 1011.53 1012.00 1012.07 1011.78 1011.26 1010.67 1010.18 1009.88 1009.82 1009.96 1010.23 1010.52 1010.72 1010.78 1010.70 1010.52 1010.33 1010.22 1010.25 1010.45 1010.82 1011.29 1011.78 1012.23 1012.58 1012.83 1012.97 1013.07 1013.17 1013.31 1013.51 1013.76 1014.05 1014.32 1014.56 1014.73 1014.85 1014.94 1015.03 1015.14 1015.31 1015.54 1015.81 1016.09 1016.35
1007.76 1008.98 1010.22 1011.29 1012.01 1012.28 1012.11 1011.56 1010.79 1010.00 1009.34 1008.93 1008.81 1008.95 1009.24 1009.58 1009.86 1010.01 1010.03 1009.96 1009.88 1009.88 1010.02 1010.31 1010.76 1011.30 1011.85 1012.35 1012.74 1013.02 1013.20 1013.33 1013.45 1013.61 1013.83 1014.08 1014.35 1014.61 1014.82 1014.97 1015.08 1015.16 1015.25 1015.38 1015.56 1015.80 1016.09 1016.37 1016.64
1008.32 1009.62 1010.86 1011.84 1012.40 1012.46 1012.04 1011.27 1010.31 1009.37 1008.62 1008.17 1008.05 1008.21 1008.54 1008.94 1009.28 1009.50 1009.59 1009.61 1009.61 1009.69 1009.90 1010.27 1010.77 1011.35 1011.94 1012.46 1012.87 1013.18 1013.38 1013.53 1013.68 1013.85 1014.06 1014.31 1014.57 1014.80 1015.00 1015.15 1015.25 1015.35 1015.46 1015.62 1015.83 1016.09 1016.39 1016.69 1016.96
1008.99 1010.31 1011.48 1012.31 1012.67 1012.51 1011.89 1010.95 1009.88 1008.88 1008.12 1007.69 1007.62 1007.83 1008.21 1008.66 1009.04 1009.30 1009.44 1009.50 1009.56 1009.68 1009.94 1010.34 1010.87 1011.46 1012.05 1012.58 1012.99 1013.30 1013.51 1013.67 1013.82 1014.00 1014.21 1014.45 1014.70 1014.93 1015.13 1015.28 1015.41 1015.54 1015.69 1015.89 1016.13 1016.42 1016.73 1017.04 1017.32
1009.72 1010.98 1012.01 1012.65 1012.79 1012.43 1011.66 1010.62 1009.52 1008.55 1007.85 1007.51 1007.52 1007.80 1008.24 1008.72 1009.12 1009.40 1009.55 1009.63 1009.71 1009.85 1010.13 1010.53 1011.06 1011.64 1012.20 1012.70 1013.10 1013.39 1013.60 1013.75 1013.90 1014.08 1014.29 1014.53 1014.78 1015.02 1015.23 1015.42 1015.59 1015.76 1015.96 1016.20 1016.48 1016.79 1017.12 1017.43 1017.70
1010.41 1011.54 1012.37 1012.79 1012.72 1012.20 1011.33 1010.27 1009.21 1008.33 1007.77 1007.56 1007.68 1008.04 1008.53 1009.02 1009.42 1009.68 1009.83 1009.91 1009.98 1010.14 1010.41 1010.81 1011.31 1011.85 1012.37 1012.83 1013.19 1013.46 1013.64 1013.80 1013.95 1014.13 1014.35 1014.60 1014.86 1015.12 1015.36 1015.58 1015.79 1016.02 1016.26 1016.54 1016.85 1017.18 1017.50 1017.80 1018.07
1010.96 1011.90 1012.51 1012.69 1012.43 1011.78 1010.86 1009.84 1008.89 1008.17 1007.77 1007.70 1007.94 1008.37 1008.89 1009.38 1009.77 1010.01 1010.14 1010.21 1010.29 1010.45 1010.71 1011.09 1011.56 1012.06 1012.54 1012.95 1013.27 1013.51 1013.69 1013.84 1014.00 1014.20 1014.44 1014.71 1014.99 1015.27 1015.54 1015.79 1016.04 1016.30 1016.58 1016.89 1017.21 1017.54 1017.85 1018.13 1018.38
1011.29 1012.02 1012.39 1012.35 1011.93 1011.19 1010.27 1009.33 1008.52 1007.97 1007.73 1007.81 1008.14 1008.63 1009.16 1009.64 1010.00 1010.23 1010.35 1010.43 1010.53 1010.69 1010.97 1011.34 1011.78 1012.25 1012.68 1013.05 1013.34 1013.57 1013.75 1013.91 1014.10 1014.33 1014.60 1014.89 1015.20 1015.50 1015.79 1016.06 1016.33 1016.61 1016.90 1017.20 1017.52 1017.83 1018.12 1018.38 1018.60
1011.39 1011.89 1012.03 1011.80 1011.25 1010.46 1009.58 1008.74 1008.08 1007.68 1007.59 1007.79 1008.18 1008.70 1009.22 1009.68 1010.02 1010.24 1010.38 1010.49 1010.62 1010.83 1011.13 1011.51 1011.94 1012.38 1012.79 1013.13 1013.41 1013.64 1013.83 1014.03 1014.26 1014.53 1014.84 1015.16 1015.49 1015.81 1016.11 1016.38 1016.64 1016.91 1017.18 1017.47 1017.76 1018.04 1018.31 1018.54 1018.75
1011.28 1011.57 1011.51 1011.12 1010.47 1009.67 1008.84 1008.11 1007.57 1007.31 1007.33 1007.59 1008.02 1008.52 1009.03 1009.46 1009.79 1010.02 1010.20 1010.36 1010.56 1010.83 1011.18 1011.58 1012.03 1012.46 1012.85 1013.19 1013.47 1013.72 1013.95 1014.20 1014.48 1014.79 1015.14 1015.50 1015.85 1016.17 1016.46 1016.71 1016.95 1017.19 1017.43 1017.68 1017.94 1018.20 1018.43 1018.65 1018.84
1011.03 1011.15 1010.93 1010.42 1009.72 1008.92 1008.15 1007.51 1007.08 1006.91 1006.99 1007.27 1007.68 1008.16 1008.62 1009.03 1009.36 1009.63 1009.86 1010.10 1010.39 1010.73 1011.14 1011.58 1012.04 1012.48 1012.88 1013.22 1013.52 1013.80 1014.07 1014.37 1014.70 1015.07 1015.46 1015.84 1016.20 1016.52 1016.80 1017.04 1017.24 1017.44 1017.65 1017.86 1018.09 1018.31 1018.53 1018.74 1018.92
1010.75 1010.72 1010.39 1009.81 1009.09 1008.32 1007.62 1007.05 1006.70 1006.58 1006.66 1006.92 1007.29 1007.71 1008.12 1008.50 1008.84 1009.15 1009.45 1009.78 1010.15 1010.57 1011.04 1011.53 1012.01 1012.46 1012.87 1013.23 1013.55 1013.86 1014.18 1014.52 1014.91 1015.31 1015.73 1016.13 1016.50 1016.82 1017.09 1017.31 1017.49 1017.67 1017.84 1018.03 1018.23 1018.44 1018.65 1018.86 1019.05
1010.53 1010.40 1010.00 1009.39 1008.68 1007.96 1007.32 1006.82 1006.51 1006.39 1006.46 1006.66 1006.96 1007.30 1007.66 1008.01 1008.35 1008.70 1009.07 1009.47 1009.92 1010.41 1010.92 1011.44 1011.94 1012.41 1012.82 1013.20 1013.55 1013.89 1014.24 1014.62 1015.04 1015.47 1015.90 1016.31 1016.69 1017.01 1017.28 1017.49 1017.68 1017.85 1018.02 1018.20 1018.40 1018.61 1018.83 1019.04 1019.24
1010.44 1010.25 1009.81 1009.22 1008.55 1007.89 1007.31 1006.86 1006.57 1006.44 1006.46 1006.59 1006.80 1007.06 1007.35 1007.67 1008.01 1008.38 1008.78 1009.24 1009.73 1010.26 1010.80 1011.33 1011.84 1012.31 1012.74 1013.14 1013.51 1013.87 1014.25 1014.65 1015.07 1015.50 1015.94 1016.35 1016.72 1017.05 1017.33 1017.57 1017.78 1017.97 1018.17 1018.38 1018.60 1018.82 1019.06 1019.29 1019.51
1010.49 1010.26 1009.82 1009.26 1008.66 1008.08 1007.57 1007.17 1006.89 1006.74 1006.69 1006.73 1006.85 1007.02 1007.25 1007.52 1007.84 1008.20 1008.62 1009.09 1009.59 1010.12 1010.66 1011.19 1011.70 1012.18 1012.62 1013.03 1013.43 1013.82 1014.21 1014.61 1015.02 1015.43 1015.84 1016.23 1016.60 1016.93 1017.24 1017.52 1017.78 1018.03 1018.28 1018.54 1018.80 1019.06 1019.32 1019.58 1019.82
1010.64 1010.39 1009.98 1009.48 1008.96 1008.47 1008.04 1007.69 1007.42 1007.23 1007.12 1007.07 1007.10 1007.18 1007.33 1007.54 1007.82 1008.16 1008.55 1008.99 1009.47 1009.97 1010.48 1011.00 1011.50 1011.98 1012.45 1012.89 1013.32 1013.73 1014.14 1014.53 1014.91 1015.28 1015.65 1016.00 1016.35 1016.69 1017.03 1017.36 1017.68 1018.01 1018.33 1018.66 1018.97 1019.28 1019.58 1019.86 1020.12
1010.80 1010.55 1010.20 1009.79 1009.39 1009.00 1008.65 1008.35 1008.08 1007.86 1007.68 1007.54 1007.46 1007.46 1007.52 1007.66 1007.88 1008.17 1008.51 1008.90 1009.32 1009.77 1010.24 1010.72 1011.22 1011.72 1012.22 1012.71 1013.19 1013.63 1014.05 1014.42 1014.77 1015.09 1015.41 1015.71 1016.03 1016.37 1016.73 1017.11 1017.50 1017.91 1018.31 1018.70 1019.08 1019.44 1019.78 1020.09 1020.37
1010.90 1010.69 1010.42 1010.13 1009.85 1009.59 1009.33 1009.07 1008.80 1008.53 1008.27 1008.04 1007.86 1007.76 1007.74 1007.81 1007.96 1008.18 1008.45 1008.76 1009.11 1009.49 1009.91 1010.36 1010.85 1011.38 1011.93 1012.48 1013.01 1013.51 1013.94 1014.32 1014.64 1014.91 1015.16 1015.42 1015.69 1016.01 1016.38 1016.80 1017.25 1017.72 1018.20 1018.66 1019.10 1019.51 1019.88 1020.22 1020.53
1010.87 1010.73 1010.58 1010.45 1010.32 1010.19 1010.02 1009.80 1009.52 1009.19 1008.84 1008.50 1008.22 1008.01 1007.91 1007.90 1007.98 1008.13 1008.33 1008.57 1008.84 1009.15 1009.50 1009.92 1010.41 1010.96 1011.56 1012.18 1012.78 1013.34 1013.81 1014.20 1014.50 1014.73 1014.93 1015.14 1015.37 1015.67 1016.03 1016.47 1016.96 1017.48 1018.01 1018.52 1019.01 1019.46 1019.87 1020.25 1020.59
1010.71 1010.69 1010.70 1010.74 1010.79 1010.79 1010.71 1010.51 1010.20 1009.80 1009.34 1008.89 1008.49 1008.18 1007.99 1007.91 1007.93 1008.03 1008.17 1008.34 1008.53 1008.77 1009.06 1009.44 1009.91 1010.48 1011.11 1011.79 1012.46 1013.08 1013.61 1014.03 1014.33 1014.55 1014.72 1014.88 1015.08 1015.34 1015.69 1016.13 1016.64 1017.19 1017.75 1018.30 1018.82 1019.30 1019.75 1020.16 1020.53
1010.43 1010.58 1010.80 1011.05 1011.28 1011.41 1011.41 1011.22 1010.86 1010.35 1009.77 1009.19 1008.67 1008.27 1008.00 1007.88 1007.86 1007.92 1008.02 1008.13 1008.27 1008.43 1008.65 1008.96 1009.39 1009.94 1010.59 1011.30 1012.01 1012.69 1013.27 1013.73 1014.06 1014.29 1014.46 1014.61 1014.79 1015.04 1015.38 1015.81 1016.31 1016.87 1017.44 1018.00 1018.54 1019.05 1019.52 1019.96 1020.37
1010.11 1010.47 1010.92 1011.40 1011.81 1012.08 1012.13 1011.93 1011.49 1010.87 1010.16 1009.44 1008.81 1008.32 1008.00 1007.85 1007.82 1007.87 1007.95 1008.03 1008.11 1008.20 1008.34 1008.56 1008.90 1009.38 1009.99 1010.68 1011.41 1012.11 1012.74 1013.25 1013.64 1013.91 1014.11 1014.29 1014.48 1014.73 1015.07 1015.49 1015.99 1016.53 1017.10 1017.66 1018.21 1018.72 1019.21 1019.67 1020.12
1009.82 1010.41 1011.10 1011.80 1012.39 1012.77 1012.86 1012.63 1012.11 1011.36 1010.51 1009.67 1008.93 1008.38 1008.03 1007.88 1007.87 1007.94 1008.03 1008.10 1008.13 1008.14 1008.17 1008.26 1008.48 1008.84 1009.34 1009.96 1010.65 1011.35 1012.00 1012.56 1013.01 1013.36 1013.63 1013.86 1014.10 1014.39 1014.74 1015.16 1015.65 1016.18 1016.73 1017.28 1017.82 1018.34 1018.84 1019.31 1019.78
1009.59 1010.41 1011.33 1012.24 1012.98 1013.44 1013.55 1013.27 1012.66 1011.80 1010.82 1009.87 1009.07 1008.47 1008.13 1008.00 1008.04 1008.16 1008.27 1008.34 1008.33 1008.26 1008.16 1008.11 1008.15 1008.34 1008.69 1009.18 1009.77 1010.43 1011.08 1011.68 1012.19 1012.63 1012.99 1013.32 1013.64 1013.98 1014.37 1014.81 1015.30 1015.82 1016.35 1016.89 1017.41 1017.92 1018.41 1018.89 1019.37
1009.42 1010.45 1011.57 1012.64 1013.49 1014.01 1014.11 1013.78 1013.08 1012.12 1011.06 1010.04 1009.19 1008.60 1008.28 1008.21 1008.31 1008.49 1008.65 1008.72 1008.68 1008.53 1008.31 1008.09 1007.94 1007.93 1008.08 1008.40 1008.87 1009.44 1010.06 1010.68 1011.26 1011.78 1012.25 1012.68 1013.10 1013.52 1013.97 1014.44 1014.94 1015.45 1015.97 1016.48 1016.98 1017.47 1017.95 1018.43 1018.90
1009.30 1010.49 1011.74 1012.90 1013.82 1014.35 1014.43 1014.05 1013.30 1012.28 1011.16 1010.12 1009.27 1008.71 1008.45 1008.45 1008.63 1008.88 1009.09 1009.18 1009.11 1008.88 1008.55 1008.17 1007.84 1007.63 1007.58 1007.72 1008.04 1008.50 1009.07 1009.68 1010.30 1010.90 1011.48 1012.01 1012.53 1013.04 1013.55 1014.06 1014.57 1015.08 1015.58 1016.07 1016.55 1017.02 1017.48 1017.94 1018.40
1009.18 1010.44 1011.76 1012.95 1013.86 1014.38 1014.42 1014.01 1013.23 1012.19 1011.08 1010.07 1009.27 1008.77 1008.58 1008.65 1008.91 1009.22 1009.48 1009.59 1009.51 1009.24 1008.82 1008.33 1007.85 1007.47 1007.25 1007.22 1007.39 1007.75 1008.24 1008.83 1009.47 1010.12 1010.77 1011.39 1012.00 1012.58 1013.15 1013.69 1014.22 1014.73 1015.22 1015.69 1016.14 1016.58 1017.01 1017.45 1017.89
1009.00 1010.27 1011.57 1012.72 1013.58 1014.05 1014.05 1013.63 1012.85 1011.85 1010.80 1009.86 1009.15 1008.73 1008.62 1008.77 1009.09 1009.45 1009.74 1009.87 1009.79 1009.50 1009.05 1008.50 1007.93 1007.45 1007.11 1006.96 1007.02 1007.27 1007.69 1008.24 1008.87 1009.54 1010.22 1010.90 1011.56 1012.19 1012.80 1013.37 1013.91 1014.41 1014.89 1015.33 1015.76 1016.17 1016.58 1016.99 1017.40
1008.77 1009.97 1011.17 1012.22 1012.98 1013.37 1013.34 1012.92 1012.19 1011.28 1010.35 1009.53 1008.93 1008.62 1008.59 1008.79 1009.14 1009.51 1009.81 1009.96 1009.89 1009.62 1009.18 1008.63 1008.06 1007.56 1007.18 1006.97 1006.96 1007.15 1007.50 1007.99 1008.58 1009.23 1009.91 1010.59 1011.27 1011.92 1012.53 1013.11 1013.64 1014.14 1014.59 1015.02 1015.41 1015.80 1016.18 1016.56 1016.95
1008.50 1009.58 1010.62 1011.52 1012.16 1012.46 1012.40 1012.01 1011.37 1010.59 1009.81 1009.15 1008.69 1008.48 1008.52 1008.75 1009.09 1009.45 1009.73 1009.87 1009.82 1009.59 1009.20 1008.72 1008.21 1007.76 1007.41 1007.22 1007.19 1007.34 1007.64 1008.06 1008.59 1009.19 1009.82 1010.47 1011.11 1011.74 1012.34 1012.90 1013.42 1013.90 1014.33 1014.73 1015.10 1015.46 1015.81 1016.17 1016.52
Thickness
5815 5813 5810 5800 5781 5764 5763 5777 5787 5789 5793 5802 5804 5797 5788 5782 5774 5771 5789 5796 5793 5788 5783 5780 5777 5775 5774 5773 5772 5771 5770 5769 5769 5767 5767 5766 5765 5764 5764 5762 5761 5760 5759 5758 5757 5755 5754 5752 5751
5816 5812 5803 5789 5767 5751 5763 5783 5787 5793 5801 5806 5804 5799 5791 5786 5790 5788 5790 5793 5792 5787 5783 5779 5776 5774 5772 5771 5770 5769 5769 5768 5767 5766 5765 5764 5763 5763 5762 5761 5760 5758 5757 5756 5754 5753 5751 5750 5749
5815 5811 5792 5776 5764 5757 5770 5789 5794 5803 5809 5806 5799 5798 5792 5787 5791 5791 5794 5794 5790 5785 5781 5778 5775 5773 5771 5770 5769 5768 5767 5766 5765 5764 5763 5762 5762 5761 5760 5759 5758 5756 5755 5754 5753 5751 5749 5748 5747
5811 5798 5785 5769 5766 5776 5786 5797 5803 5802 5806 5807 5800 5790 5794 5800 5798 5797 5796 5793 5787 5782 5779 5777 5774 5771 5770 5768 5767 5766 5765 5764 5763 5762 5761 5761 5760 5759 5758 5757 5756 5754 5753 5752 5750 5749 5747 5746 5745
5805 5787 5770 5759 5767 5784 5799 5807 5808 5802 5801 5803 5799 5787 5787 5798 5803 5799 5795 5791 5785 5780 5777 5775 5772 5770 5768 5766 5765 5764 5763 5762 5761 5760 5759 5758 5758 5757 5756 5755 5753 5752 5751 5749 5748 5747 5745 5744 5743
5789 5777 5757 5754 5769 5790 5803 5812 5810 5804 5802 5803 5797 5786 5784 5795 5797 5795 5793 5788 5785 5780 5776 5773 5770 5768 5766 5764 5763 5762 5761 5760 5759 5758 5757 5756 5755 5754 5753 5752 5751 5749 5748 5747 5746 5745 5744 5742 5741
5782 5769 5760 5764 5770 5783 5803 5814 5809 5804 5801 5802 5802 5784 5783 5790 5794 5794 5790 5786 5782 5778 5774 5771 5768 5766 5764 5762 5761 5760 5759 5758 5757 5756 5755 5754 5753 5752 5751 5750 5748 5747 5746 5745 5744 5743 5742 5741 5740
5791 5771 5764 5763 5770 5781 5805 5813 5815 5809 5805 5813 5808 5788 5783 5791 5794 5791 5786 5781 5778 5775 5772 5769 5767 5765 5763 5761 5759 5758 5757 5755 5755 5754 5753 5752 5751 5750 5749 5747 5746 5745 5744 5743 5742 5741 5740 5739 5738
5794 5764 5754 5765 5774 5786 5804 5805 5811 5818 5811 5810 5811 5805 5803 5799 5793 5786 5779 5775 5773 5771 5769 5768 5765 5763 5761 5759 5757 5756 5755 5754 5753 5752 5751 5750 5749 5747 5746 5745 5744 5743 5742 5741 5740 5739 5738 5737 5737
5782 5758 5766 5783 5791 5794 5801 5802 5806 5806 5801 5801 5802 5805 5804 5797 5790 5783 5778 5774 5771 5769 5767 5766 5764 5761 5759 5757 5756 5754 5753 5752 5751 5750 5749 5747 5746 5745 5744 5743 5742 5741 5740 5739 5738 5737 5736 5735 5735
5781 5772 5783 5792 5800 5801 5799 5803 5810 5801 5793 5802 5802 5800 5798 5793 5788 5783 5780 5777 5774 5771 5768 5765 5762 5760 5757 5756 5754 5752 5751 5749 5748 5747 5746 5745 5743 5743 5741 5741 5740 5739 5738 5737 5736 5735 5734 5733 5733
5781 5785 5791 5797 5804 5801 5800 5804 5805 5805 5809 5820 5817 5809 5801 5794 5789 5786 5782 5778 5774 5770 5767 5764 5761 5758 5756 5754 5752 5750 5748 5747 5745 5745 5744 5742 5741 5740 5739 5738 5737 5737 5736 5735 5734 5733 5733 5732 5731
5783 5787 5796 5801 5802 5802 5803 5801 5804 5809 5821 5822 5815 5806 5800 5796 5792 5788 5785 5780 5775 5770 5767 5764 5761 5757 5755 5753 5751 5748 5746 5744 5743 5742 5741 5740 5739 5738 5737 5736 5736 5735 5734 5733 5732 5732 5731 5730 5730
5788 5790 5793 5797 5800 5804 5802 5802 5802 5811 5820 5816 5809 5803 5800 5797 5793 5787 5782 5778 5774 5770 5767 5764 5761 5758 5754 5752 5749 5747 5744 5742 5741 5740 5739 5738 5737 5736 5735 5734 5734 5733 5732 5732 5731 5730 5730 5729 5729
5791 5784 5785 5793 5797 5801 5800 5790 5798 5812 5814 5808 5805 5802 5798 5795 5792 5789 5787 5781 5777 5772 5767 5763 5760 5757 5754 5751 5748 5745 5742 5740 5739 5738 5737 5736 5735 5735 5733 5732 5732 5732 5731 5730 5729 5728 5728 5728 5727
5780 5770 5764 5782 5792 5797 5789 5775 5798 5808 5806 5801 5801 5799 5795 5793 5792 5789 5786 5782 5777 5772 5767 5763 5761 5756 5753 5750 5746 5744 5741 5739 5737 5736 5735 5734 5734 5733 5732 5731 5731 5731 5730 5729 5728 5727 5726 5725 5725
5754 5749 5756 5770 5786 5789 5781 5775 5794 5804 5802 5797 5798 5797 5794 5791 5789 5788 5786 5782 5777 5773 5769 5764 5760 5756 5752 5749 5745 5742 5740 5738 5736 5735 5733 5732 5732 5732 5731 5731 5730 5730 5729 5728 5728 5726 5725 5723 5723
5741 5748 5753 5758 5775 5778 5773 5775 5788 5796 5797 5794 5794 5794 5793 5791 5791 5790 5786 5781 5776 5772 5768 5764 5760 5755 5751 5747 5743 5740 5737 5736 5735 5734 5732 5731 5731 5731 5730 5730 5729 5729 5728 5727 5726 5725 5724 5722 5721
5753 5751 5748 5757 5772 5771 5767 5770 5780 5789 5789 5788 5788 5789 5790 5791 5793 5789 5785 5781 5775 5770 5766 5762 5758 5754 5749 5745 5741 5738 5736 5735 5733 5733 5732 5731 5730 5730 5730 5729 5729 5728 5727 5726 5725 5723 5721 5719 5719
5750 5745 5746 5756 5769 5768 5762 5766 5776 5782 5784 5787 5787 5787 5789 5787 5786 5784 5781 5779 5775 5770 5765 5761 5757 5754 5751 5747 5744 5740 5737 5735 5734 5733 5732 5731 5731 5730 5729 5729 5728 5727 5726 5724 5724 5722 5719 5718 5718
5745 5743 5746 5748 5756 5762 5759 5754 5764 5775 5781 5784 5786 5787 5788 5787 5783 5781 5779 5777 5774 5769 5766 5762 5758 5754 5751 5747 5741 5737 5733 5731 5730 5730 5731 5732 5731 5729 5729 5729 5728 5727 5726 5724 5723 5722 5720 5717 5716
5736 5754 5753 5750 5740 5733 5745 5728 5752 5762 5768 5776 5780 5782 5784 5785 5782 5779 5776 5774 5772 5770 5766 5762 5758 5753 5750 5746 5741 5737 5734 5732 5732 5732 5731 5731 5730 5729 5729 5728 5728 5727 5726 5724 5724 5723 5721 5719 5715
5747 5758 5753 5748 5737 5729 5733 5726 5737 5754 5759 5768 5775 5780 5783 5783 5781 5778 5775 5773 5772 5769 5765 5761 5757 5753 5750 5747 5743 5739 5736 5734 5732 5731 5730 5729 5729 5728 5728 5727 5727 5726 5725 5724 5723 5722 5721 5720 5718
5756 5748 5738 5726 5720 5712 5726 5722 5728 5743 5756 5765 5772 5777 5781 5781 5780 5777 5774 5771 5769 5767 5763 5760 5755 5752 5749 5747 5744 5741 5737 5734 5731 5729 5728 5728 5727 5726 5726 5726 5726 5725 5724 5724 5723 5722 5721 5720 5719
5746 5722 5702 5703 5695 5703 5723 5721 5728 5754 5763 5766 5768 5772 5777 5778 5776 5773 5771 5767 5765 5763 5762 5759 5754 5750 5748 5745 5743 5741 5738 5735 5733 5731 5730 5728 5726 5725 5725 5726 5725 5724 5724 5723 5722 5721 5719 5719 5717
5734 5726 5702 5694 5693 5701 5716 5716 5737 5760 5765 5768 5770 5772 5772 5771 5771 5770 5768 5766 5762 5760 5759 5756 5753 5749 5746 5744 5742 5741 5738 5736 5733 5732 5731 5729 5728 5728 5727 5725 5724 5724 5723 5722 5721 5720 5719 5718 5717
5729 5724 5729 5705 5701 5699 5706 5721 5741 5758 5759 5761 5764 5766 5766 5766 5767 5766 5766 5763 5760 5758 5757 5754 5750 5747 5745 5743 5741 5738 5736 5734 5733 5732 5730 5729 5728 5727 5726 5724 5723 5723 5722 5721 5720 5718 5717 5716 5716
5744 5729 5712 5701 5689 5690 5707 5713 5723 5744 5749 5754 5757 5759 5761 5763 5763 5763 5762 5760 5759 5757 5755 5753 5750 5746 5743 5741 5739 5738 5736 5734 5733 5731 5730 5729 5728 5726 5725 5723 5722 5721 5720 5719 5718 5717 5716 5714 5714
5730 5724 5714 5701 5703 5691 5692 5710 5745 5748 5752 5752 5756 5758 5758 5758 5759 5759 5759 5758 5757 5755 5751 5749 5747 5744 5741 5740 5739 5737 5736 5734 5732 5731 5729 5728 5726 5725 5724 5722 5720 5719 5718 5717 5716 5715 5714 5713 5712
5742 5730 5719 5708 5701 5699 5697 5713 5754 5753 5753 5753 5754 5755 5756 5756 5756 5755 5755 5755 5752 5750 5748 5746 5744 5742 5740 5739 5737 5736 5735 5733 5731 5730 5728 5727 5725 5724 5723 5721 5719 5718 5717 5716 5715 5713 5713 5711 5710